Regional Weather Roundup
Issued by NWS

Home | Current Version | Previous Version | Graphics & Text | Print | Product List | Glossary On
Versions: 1 2 3 4 5 6 7 8 9 10 11 12 13 14 15 16 17 18 19 20 21 22 23 24 25 26 27 28 29 30 31 32 33 34 35 36 37 38 39 40 41 42 43 44 45 46 47 48 49 50
000
ASUS45 KBOI 260010
RWRID
WEATHER ROUNDUP FOR IDAHO
NATIONAL WEATHER SERVICE BOISE ID
500 PM MST THU DEC 25 2014

NOTE: "FAIR" INDICATES FEW OR NO CLOUDS BELOW 12000 FEET
WITH NO SIGNIFICANT WEATHER AND/OR OBSTRUCTIONS TO VISIBILITY

IDZ012-014-260100-
SOUTHWEST IDAHO


CITY           SKY/WX    TMP DP  RH WIND       PRES   REMARKS
BOISE          CLEAR     35  23  61 NW18      29.98R WCI  24
CALDWELL       CLEAR     36  23  60 SW16      30.03R WCI  26
MOUNTAIN HOME  CLEAR     33  24  70 NW26G36   29.92R WCI  20
$$

IDZ016-017-260100-
SOUTHCENTRAL IDAHO


CITY           SKY/WX    TMP DP  RH WIND       PRES   REMARKS
BURLEY         CLOUDY    28  22  78 W17G25    29.81R WCI  16
JEROME         CLOUDY    29  23  78 W16       29.83R WCI  17
TWIN FALLS     CLOUDY    30  22  72 W25       29.83R WCI  16
$$

IDZ019>023-260100-
SOUTHEAST IDAHO


CITY           SKY/WX    TMP DP  RH WIND       PRES   REMARKS
IDAHO FALLS    MIX PCPN  26  17  68 N24G31    29.76R WCI  11
POCATELLO      MOCLDY    29  19  66 N13       29.80R WCI  19
REXBURG        MOCLDY    25  14  63 N17G24    29.76R WCI  12
$$

IDZ006-010-011-018-031-032-260100-
CENTRAL IDAHO MOUNTAINS


CITY           SKY/WX    TMP DP  RH WIND       PRES   REMARKS
MCCALL         CLOUDY    25  17  72 NW12      29.94R WCI  14
HAILEY         PTCLDY    30  10  43 NW15      29.81R WCI  19
STANLEY          N/A     22  10  60 VRB5      29.86R WCI  16
SALMON         PTCLDY    25  14  63 E6        29.93R WCI  18
CHALLIS        PTCLDY    22  13  68 NW8       29.89R WCI  12
$$

IDZ002-004-006-007-026-260100-
NORTHERN IDAHO


CITY           SKY/WX    TMP DP  RH WIND       PRES   REMARKS
LEWISTON       CLEAR     38  27  64 NW7       30.11R WCI  33
LOWELL           N/A     36  33  89 CALM      30.13R
COEUR D`ALENE  CLEAR     32  28  86 S5        30.05R WCI  27
MULLAN PASS    CLOUDY    21  16  81 VRB3      29.89R HAZE
$$



USA.gov is the U.S. government's official web portal to all federal, state and local government web resources and services.